Flag for U.S.A. Weather past 2 weeks in Macon, Georgia, U.S.A.

Now
76 °F

Passing clouds.


Feels Like: 77 °F
Forecast: 71 / 82 °F
Wind: 8 mph from Northwest

Location: Middle Georgia Regional Airport

Current Time: Jul 5, 2015 at 11:05:26 AM

Latest Report: Jul 5, 2015 at 9:53 AM


Visibility: 10 mi

Pressure: 30.15 "Hg

Humidity: 77%

Dew point: 68 °F

Location of MaconLocation

Historic Weather in Macon — Graph

°F

Macon temperature yesterday

Maximum temperature yesterday: 83 °F (at 2:53 PM)
Minimum temperature yesterday: 69 °F (at 4:53 AM)
Average temperature yesterday: 75 °F

Past Weeks' High & Low Weather Summary

 TemperatureHumidityPressure
High97 °F (Jun 22, 3:53 PM)100% (Jun 28, 1:03 AM)30.15 "Hg (Jun 28, 1:03 AM)
Low63 °F (Jun 29, 5:53 AM)35% (Jun 29, 4:53 PM)29.83 "Hg (Jun 27, 5:53 PM)
Average79 °F75%30.01 "Hg
* Reported Jun 20 9:53 AM — Jul 5 9:53 AM, Macon, Weather by CustomWeather, © 2015

Note: Actual official high and low records may vary slightly from our data, if they occured in-between our weather recording intervals... More about our weather records

Advertising

Macon weather history for previous 24 hours

 ConditionsComfort  
Time TempWeatherWind HumidityBarometerVisibility
9:53 AM
Sun, Jul 5
76 °FPassing clouds.8 mph77%30.15 "Hg10 mi
8:53 AM74 °FSunny.5 mph82%30.14 "Hg10 mi
7:53 AM72 °FSunny.3 mph87%30.13 "Hg10 mi
6:53 AM70 °FClear.No wind93%30.11 "Hg10 mi
5:53 AM70 °FPassing clouds.No wind93%30.09 "Hg10 mi
4:53 AM71 °FPassing clouds.3 mph90%30.09 "Hg10 mi
3:53 AM71 °FClear.3 mph93%30.08 "Hg10 mi
2:53 AM72 °FClear.No wind93%30.07 "Hg9 mi
2:03 AM73 °FPassing clouds.6 mph94%30.08 "Hg10 mi
1:53 AM73 °FPartly cloudy.6 mph94%30.06 "Hg10 mi
12:53 AM73 °FMostly cloudy.6 mph94%30.08 "Hg10 mi
11:53 PM
Sat, Jul 4
74 °FClear.7 mph91%30.09 "Hg10 mi
10:53 PM74 °FFog.6 mph91%30.11 "Hg5 mi
9:53 PM74 °FClear.No wind91%30.08 "Hg8 mi
8:53 PM75 °FSunny.3 mph88%30.07 "Hg10 mi
7:53 PM76 °FSunny.3 mph85%30.04 "Hg10 mi
6:53 PM77 °FSunny.3 mph82%30.02 "Hg10 mi
5:53 PM77 °FSunny.5 mph88%30.05 "Hg10 mi
4:53 PM77 °FSunny.6 mph88%30.05 "Hg10 mi
3:53 PM75 °FSunny.6 mph94%30.08 "Hg10 mi
2:53 PM83 °FSunny.6 mph65%30.07 "Hg10 mi
1:53 PM82 °FSunny.3 mph67%30.08 "Hg10 mi
12:59 PM75 °FLight rain. Broken clouds.14 mph78%30.11 "Hg10 mi
11:53 AM82 °FScattered clouds.6 mph72%30.10 "Hg10 mi
Weather by CustomWeather, © 2015

See weather overviewHow to use our weather pages